281  
ASUS43 KFGF 261131  
RWRFGF  
PRAIRIE TO PINES WEATHER ROUNDUP  
NATIONAL WEATHER SERVICE EASTERN NORTH DAKOTA/GRAND FORKS ND  
600 AM CDT WED APR 26 2017  
 
**SATELLITE DATA USED TO AUGMENT SKY COVER AT AUTOMATED STATIONS**  
***** WEATHER ACROSS EASTERN NORTH DAKOTA *****  
 
CITY SKY/WX TMP DP RH WIND PRES REMARKS
 
GRAND FORKS CLOUDY 32 25 75 N21 29.83F WCI 20  
GRAND FRKS AFB CLOUDY 30 24 79 NE20G26 29.83F WCI 17  
DEVILS LAKE CLOUDY 28 23 81 NE17 29.87F WCI 16  
FARGO LGT SNOW 29 27 92 N23 29.74S FOG WCI 15  
WAHPETON ARPT CLOUDY 32 30 93 N12 29.69S WCI 23  

 
 
***** WEATHER ACROSS CENTRAL AND WESTERN NORTH DAKOTA *****  
 
CITY SKY/WX TMP DP RH WIND PRES REMARKS
 
BISMARCK FAIR 32 23 69 N13 29.88R WCI 22  
MINOT FAIR 27 20 75 NW9 29.93F WCI 18  
JAMESTOWN CLOUDY 29 25 85 N17G25 29.79F WCI 17  
MINOT AFB FAIR 27 20 75 N9 29.93F WCI 17  
GARRISON N/A 27 21 78 N6 29.91S WCI 20  
WILLISTON FAIR 24 19 81 N6 29.96F WCI 17  
DICKINSON CLOUDY 30 23 75 N6 29.87F WCI 24  
HETTINGER CLOUDY 30 25 81 N9 29.88S WCI 22  

 
 
***** OTHER AIRPORT OBSERVATIONS IN OUR AREA *****  
 
CITY SKY/WX TMP DP RH WIND PRES REMARKS
 
WALHALLA NOT AVBL  
GRAFTON AIRPOR CLOUDY 30 27 86 N15 29.88S WCI 19  
VALLEY CITY AR LGT SNOW 27 27 100 N20 29.79R WCI 13  
CANDO NOT AVBL  
CAVALIER APRT CLOUDY 28 23 80 N14 29.89F WCI 17  
GWINNER FOG 30 28 93 MISG 29.73S VSB 3/4  
SHEYENNE NWR N/A 28 26 94 N14 29.95S WCI 17  
ROLLA FAIR 25 23 93 N17 29.91S WCI 11  
***** THE ABOVE OBSERVATIONS ARE NON NWS ARE NOT QUALITY  
CONTROLLED AND MAY MIS-REPORT RAIN FOR SNOW...  

 
 
***** WEATHER ACROSS NORTHERN MINNESOTA *****  
 
CITY SKY/WX TMP DP RH WIND PRES REMARKS
 
FLAG ISLAND CLOUDY 27 21 80 NE18G25 29.89S WCI 13  
WARROAD CLOUDY 27 23 86 NE23G31 29.86F WCI 12  
ROSEAU CLOUDY 28 21 74 NE22G28 29.85F WCI 15  
HALLOCK CLOUDY 30 25 80 NE15G22 29.87F WCI 19  
THF RVR FALLS CLOUDY 28 23 81 NE23G29 29.80S WCI 14  
BAUDETTE CLOUDY 24 20 84 NE16 29.83S WCI 11  
WASKISH LGT SNOW 25 21 86 NE8G18 29.78F WCI 16  
CROOKSTON CLOUDY 30 27 86 NE14 29.81F WCI 20  
STEPHEN NDAWN N/A 28 25 86 NE17 N/A WCI 16  
GREENBUSH NDAW N/A 27 25 93 NE16 N/A WCI 14  

 
***** WEATHER ACROSS CENTRAL AND WEST MINNESOTA *****  
 
CITY SKY/WX TMP DP RH WIND PRES REMARKS
 
FOSSTON MIX PCPN 27 25 93 NE12G20 29.74F WCI 16  
BEMIDJI LGT SNOW 25 23 92 N12G18 29.72F WCI 14  
PARK RAPIDS FRZ RAIN 29 23 78 NE16G23 29.65S WCI 17  
ELBOW LAKE CLOUDY 32 31 96 N10G20 29.64S WCI 24  
WADENA MIX PCPN 28 28 100 N7 29.62F WCI 21  
DETROIT LAKES LGT SNOW 32 30 93 NE9 29.68S WCI 24  
MOORHEAD LGT SNOW 28 27 93 N8 29.73S WCI 20  
FERGUS FALLS CLOUDY 32 32 100 N9 29.66S WCI 24  
MORRIS MN CLOUDY 34 32 93 N17 29.62S WCI 23  
STAPLES MIX PCPN 28 28 100 CALM 29.62S  

 
***** WEATHER ELSEWHERE ACROSS MINNESOTA *****  
 
CITY SKY/WX TMP DP RH WIND PRES REMARKS
 
DULUTH FRZ RAIN 31 29 92 E13G22 29.62F WCI 21  
INTRNTL FALLS LGT SNOW 24 19 81 NE12G23 29.80F VSB 1 WCI 13  
ELY LGT SNOW 23 21 93 NE9 29.70F WCI 13  
CLOQUET MIX PCPN 32 28 86 NE13G25 29.61F WCI 22  
WHEATON CLOUDY 32 30 93 NW14G22 29.69S WCI 22  
BRAINERD MIX PCPN 31 29 92 N16 29.61S FOG WCI 20  
HIBBING FRZ RAIN 25 23 92 NE10 29.68R FOG WCI 15  
ALEXANDRIA FRZ RAIN 32 30 92 NE15G25 29.61R FOG WCI 22  
SAINT CLOUD LGT RAIN 36 34 92 N10G18 29.54S  
MINNEAPOLIS LGT RAIN 37 35 92 N15 29.48S  

 
 
***** WEATHER ACROSS SOUTH DAKOTA *****  
 
CITY SKY/WX TMP DP RH WIND PRES REMARKS
 
SIOUX FALLS DRIZZLE 35 34 96 NW14 29.64R  
BROOKINGS CLOUDY 32 31 96 N15 29.64R WCI 22  
WATERTOWN CLOUDY 30 28 92 N17 29.65R WCI 18  
HURON CLOUDY 31 29 92 N15 29.72R WCI 20  
SISSETON N/A 31 30 96 N18 29.68S WCI 19  
ABERDEEN CLOUDY 30 26 85 N22 29.74S WCI 17  
MITCHELL CLOUDY 33 31 92 NW16 29.73R WCI 23  
PIERRE CLOUDY 32 28 85 NW15 29.79R WCI 22  
MOBRIDGE CLOUDY 34 24 67 N16 29.79R WCI 24  
RAPID CITY CLOUDY 28 23 81 NW20 29.85S WCI 15  

 
 
***** SOME WEATHER IN NEARBY STATES *****  
 
CITY SKY/WX TMP DP RH WIND PRES REMARKS
 
GLASGOW MT CLOUDY 34 24 67 SE9 29.89S  
GREAT FALLS MT FAIR 33 31 92 E7 29.75F  
CHEYENNE WY FAIR 30 22 72 N6 29.80S WCI 24  
SCOTTSBLUFF NE MOCLDY 31 25 78 NW5 29.84S  
OMAHA NE CLOUDY 37 33 85 NW17G25 29.62S  
DES MOINES IA CLOUDY 45 41 86 NW14 29.50R  
DAVENPORT IA CLOUDY 61 55 81 S8 29.40R  
CHICAGO IL CLOUDY 64 54 69 S14 29.46F  
EAU CLAIRE WI CLOUDY 43 41 93 NE13 29.42S  
LA CROSSE WI CLOUDY 57 55 93 CALM 29.36F  

 
 
***** SOME NATIONAL WEATHER *****  
 
CITY SKY/WX TMP DP RH WIND PRES REMARKS
 
LA GUARDIA NY LGT RAIN 56 53 90 NE8 29.75S FOG  
RALEIGH NC FAIR 56 55 97 CALM 29.80R  
ATLANTA GA FAIR 59 55 87 SW5 29.78R  
NEW ORLEANS LA MOCLDY 71 62 73 S12G21 29.68R  
OKLAHOMA CITY CLOUDY 48 44 86 N21 29.57R  
ALBUQUERQUE NM FAIR 43 29 57 N9 29.87R  
SALT LAKE CITY FAIR 43 35 73 E8 29.90S  
LOS ANGELES CA FAIR 59 53 80 E5 29.88F  
BOISE ID CLOUDY 47 40 76 E7 29.87R  
SEATTLE WA LGT RAIN 48 45 89 SW17G26 29.81S  

 
 
*** WEATHER ACROSS MANITOBA...SASKATCHEWAN AND ONTARIO ***  
***ONTARIO***  
 
CITY SKY/WX TMP DP RH WIND PRES REMARKS
 
GERALDTON LGTSLEET 14 10 85 NE18G28 29.96S VSB 3/4 WCI -3  
THUNDER BAY FRZ RAIN 27 23 86 N9 29.80S WCI 17  
SIOUX LOOKOUT CLOUDY 19 14 79 NE8G20 29.96S WCI 9  
TORONTO PTCLDY 48 46 93 NE6 29.80S  
BIG TROUT LK CLEAR 3 1 92 E5 30.30R WCI -6  
PICKLE LAKE MOCLDY 9 5 85 NE13 30.10 WCI -7  
DRYDEN CLOUDY 21 18 86 NE23G30 29.90F WCI 5  
KENORA CLOUDY 21 18 86 NE18G29 29.91S WCI 6  

 
*** MANITOBA***  
 
CITY SKY/WX TMP DP RH WIND PRES REMARKS
 
BRANDON MOCLDY 27 18 69 NE16 29.99S WCI 14  
DAUPHIN CLEAR 16 14 93 W5 30.08S WCI 9  
ISLAND LAKE CLEAR 12 5 73 E3 30.24R  
PILOT MOUND N/A 27 21 80 N10 N/A WCI 17  
THE PAS CLEAR 19 9 63 E6 30.17S WCI 11  
THOMPSON CLEAR 1 -8 66 NE2 30.25F  
WINNIPEG MOCLDY 28 19 69 NE17 29.97S WCI 16  
LYNN LAKE CLEAR 10 0 61 SE6 30.16F WCI 1  
CHURCHILL PTCLDY 1 -6 71 S12 30.26S WCI -15  
GILLAM CLEAR -8 -11 84 CALM 30.31S  

 
***SASKATCHEWAN***  
 
CITY SKY/WX TMP DP RH WIND PRES REMARKS
 
ESTEVAN PTCLDY 21 18 86 NE7 29.98F WCI 13  
KINDERSLEY CLOUDY 30 28 93 SE17G24 29.83F WCI 18  
LLOYDMINSTER FLURRIES 28 28 100 E14G20 29.89F WCI 17  
PRINCE ALBERT MOCLDY 27 16 63 E8 30.03F WCI 18  
REGINA PTCLDY 27 16 63 E15 29.99F WCI 15  
YORKTON CLEAR 18 16 93 N5 30.05S WCI 11  
N. BATTLEFORD FLURRIES 30 N/A N/A E12 29.95F WCI 21  
LA RONGE CLEAR 23 7 50 E3 30.08S  
SASKATOON LGT SNOW 28 27 93 E13 29.99F FOG WCI 18  
SWIFT CURRENT CLOUDY 30 28 93 SE12 29.84F WCI 21  

 
NOTE: THESE ARE AUTOMATED STATIONS WITH LIMITED QUALITY CONTROL  
"FAIR" INDICATES FEW OR NO CLOUDS BELOW 12,000 FEET WITH NO  
SIGNIFICANT WEATHER AND/OR S TO VISIBILITY
.  
SKY/WX - SKY CONDITION AND SIGNIFICANT WEATHER.  
TMP - AIR TEMPERATURE. DP - DEWPOINT TEMPERATURE.  
RH - RELATIVE HUMIDITY. PRES - PRESSURE.  
HX - HEAT INDEX. WCI - WIND CHILL INDEX.  
$  
 
 
CLICK HERE TO GO TO PREVIOUS BULLETINS.

The Nexlab ND Page
The Nexlab MN Page Main Text Page